Location: *
(32.8667°N, 13.1833°E)
Time: 23:03:34
(UTC+00:00)

Cosmos 407 Rocket - Pass Details

Date: 18 July 2019
Orbit: 743 x 787 km, 74.0° (Epoch: 24 August)

Event Time Altitude Azimuth Distance (km) Brightness Sun altitude
Exits shadow 19:47:14 28° 118° (ESE) 1,409 4.3 -17.1°
Maximum altitude 19:48:09 30° 99° (E) 1,359 4.3 -17.2°
Drops below altitude 10° 19:52:44 10° 40° (NE) 2,338 6.0 -17.9°
Sets 19:55:22 0° 30° (NNE) 3,274 6.9 -18.3°
